Location: Barletta
(41.3170°N, 16.2830°E)
Time: 03:43:39
(UTC+02:00)

ISS - Pass Details

Date: 20 May 2021
Orbit: 417 x 422 km, 51.6° (Epoch: 14 June)

Event Time Altitude Azimuth Distance (km) Brightness Sun altitude
Rises 22:56:24 0° 301° (WNW) 2,366 1.0 -23.0°
Reaches altitude 10° 22:59:15 10° 327° (NNW) 1,503 0.2 -23.2°
Maximum altitude 23:01:10 14° 2° (N) 1,272 -0.6 -23.4°
Drops below altitude 10° 23:03:05 10° 37° (NE) 1,505 -0.7 -23.6°
Enters shadow 23:04:23 - 52° (NE) 1,853 -0.4 -23.7°
